EHI
0 0 0 0 0 0 0 0 0 0 0 0 0 0 0 0 0 0 0 0 0 0 0 0 0 0 0 0 0 0 0 0 0 0 0 0 0 0 0 0 0 0 0 0
0 0 0 0 0 0 0 0 0 0 0 0 0 0 0 0 0 0 0 0 0 0 0 0 0 0 0 0 0 0 0 0 0 0 0 0 0 0 0 0 0 0 0 0
0 0 0 0 0 0 0 0 0 0 0 0 0 0 0 0 0 0 0 0 0 0 0 0 0 0 0 0 0 0 0 0 0 0 0 0 0 0 0 0 0 0 0 0
0 0 0 0 0 0 0 0 0 0 0 0 0 0 0 0 0 0 0 0 0 0 0 0 0 0 0 0 0 0 0 0 0 0 0 0 0 0 0 0 0 0 0 0
0 0 0 0 0 0 0 0 0 0 0 0 0 0 0 0 0 0 0 0 0 0 0 0 0 0 0 0 0 0 0 0 0 0 0 0 0 0 0 0 0 0 0 0
0 0 0 0 0 0 0 0 0 0 0 0 0 0 0 0 0 0 0 0 0 0 0 0 0 0 0 0 0 0 0 0 0 0 0 0 0 0 0 0 0 0 0 0
0 0 0 0 0 0 0 0 0 0 0 0 0 0 0 0 0 0 0 0 0 0 0 0 0 0 0 0 0 0 0 0 0 0 0 0 0 0 0 0 0 0 0 0
0 0 0 0 0 0 0 0 0 0 0 0 0 0 0 0 0 0 0 0 0 0 0 0 0 0 0 0 0 0 0 0 0 0 0 0 0 0 0 0 0 0 0 0
0 0 0 0 0 0 0 0 0 0 0 0 0 0 0 0 0 0 0 0 0 0 0 0 0 0 0 0 0 0 0 0 0 0 0 0 0 0 0 0 0 0 0 0
0 0 0 0 0 0 0 0 0 0 0 0 0 0 0 0 0 0 0 0 0 0 0 0 0 0 0 0 0 0 0 0 0 0 0 0 0 0 0 0 0 0 0 0
0 0 0 0 0 0 0 0 0 0 0 0 0 0 0 0 0 0 0 0 0 0 0 0 0 0 0 0 0 0 0 0 0 0 0 0 0 0 0 0 0 0 0 0
0 0 0 0 0 0 0 0 0 0 0 0 0 0 0 0 0 0 0 0 0 0 0 0 0 0 0 0 0 0 0 0 0 0 0 0 0 0 0 0 0 0 0 0
0 0 0 0 0 0 0 0 0 0 0 0 0 0 0 0 0 0 0 0 0 0 0 0 0 0 0 0 0 0 0 0 0 0 0 0 0 0 0 0 0 0 0 0
0 0 0 0 0 0 0 0 0 0 0 0 0 0 0 0 0 0 0 0 0 0 0 0 0 0 0 0 0 0 0 0 0 0 0 0 0 0 0 0 0 0 0 0
0 0 0 0 0 0 0 0 0 0 0 0 0 0 0 0 0 0 0 0 0 0 0 0 0 0 0 0 0 0 0 0 0 0 0 0 0 0 0 0 0 0 0 0
0 0 0 0 0 0 0 0 0 0 0 0 0 0 0 0 0 0 0 0 0 0 0 0 0 0 0 0 0 0 0 0 0 0 0 0 0 0 0 0 0 0 0 0
0 0 0 0 0 0 0 0 0 0 0 0 0 0 0 0 0 0 0 0 0 0 0 0 0 0 0 0 0 0 0 0 0 0 0 0 0 0 0 0 0 0 0 0
0 0 0 0 0 0 0 0 0 0 0 0 0 0 0 0 0 0 0 0 0 0 0 0 0 0 0 0 0 0 0 0 0 0 0 0 0 0 0 0 0 0 0 0
0 0 0 0 0 0 0 0 0 0 0 0 0 0 0 0 0 0 0 0 0 0 0 0 0 0 0 0 0 0 0 0 0 0 0 0 0 0 0 0 0 0 0 0
0 0 0 0 0 0 0 0 0 0 0 0 0 0 0 0 0 0 0 0 0 0 0 0 0 0 0 0 0 0 0 0 0 0 0 0 0 0 0 0 0 0 0 0
0 0 0 0 0 0 0 0 0 0 0 0 0 0 0 0 0 0 0 0 0 0 0 0 0 0 0 0 0 0 0 0 0 0 0 0 0 0 0 0 0 0 0 0
0 0 0 0 0 0 0 0 0 0 0 0 0 0 0 0 0 0 0 0 0 0 0 0 0 0 0 0 0 0 0 0 0 0 0 0 0 0 0 0 0 0 0 0
0 0 0 0 0 0 0 0 0 0 0 0 0 0 0 0 0 0 0 0 0 0 0 0 0 0 0 0 0 0 0 0 0 0 0 0 0 0 0 0 0 0 0 0
0 0 0 0 0 0 0 0 0 0 0 0 0 0 0 0 0 0 0 0 0 0 0 0 0 0 0 0 0 0 0 0 0 0 0 0 0 0 0 0 0 0 0 0
0 0 0 0 0 0 0 0 0 0 0 0 0 0 0 0 0 0 0 0 0 0 0 0 0 0 0 0 0 0 0 0 0 0 0 0 0 0 0 0 0 0 0 0
0 0 0 0 0 0 0 0 0 0 0 0 0 0 0 0 0 0 0 0 0 0 0 0 0 0 0 0 0 0 0 0 0 0 0 0 0 0 0 0 0 0 0 0
Wind_Speed
12 10 11 12 11 4 3 4 4 1 2 6 9 11 9 8 10 11 12 12 12 11 9 8 8 8 7 6 5 3 2 1 1 1 2 3 2 3 2 3 5 5 5 6
11 12 10 7 6 5 5 6 5 2 2 5 8 12 11 9 12 12 12 13 13 11 10 10 10 9 9 7 5 4 2 1 0 1 2 2 3 3 3 3 3 4 5 5
12 7 9 9 9 9 8 7 6 4 2 5 7 10 8 7 9 10 11 12 12 12 12 12 11 10 9 8 7 4 3 2 1 0 1 2 1 2 1 2 2 4 5 4
7 6 9 10 9 9 7 3 5 5 6 4 4 8 5 4 7 10 11 12 12 12 11 11 11 11 10 9 7 6 4 3 2 2 2 3 3 3 3 3 3 3 3 4
6 8 10 10 7 7 1 1 3 5 6 8 6 8 5 3 6 8 10 11 12 12 12 12 12 11 10 9 7 6 5 4 3 2 1 3 3 2 2 3 3 3 3 3
4 3 4 3 2 4 5 4 4 5 6 8 4 7 6 2 2 2 4 8 11 11 12 11 10 10 9 9 8 7 6 5 4 4 4 4 3 3 3 3 3 3 2 2
6 6 4 3 6 6 7 7 5 5 5 3 1 6 6 2 2 3 3 4 8 11 12 12 12 12 11 10 9 8 8 6 5 5 5 4 4 4 4 4 2 3 3 2
7 8 7 6 5 6 8 8 6 5 5 4 3 7 4 1 3 4 5 4 6 10 11 12 12 12 11 11 10 9 8 7 6 6 5 4 4 4 3 3 4 3 3 3
5 5 5 3 2 4 6 6 4 7 7 8 5 5 7 3 5 5 5 5 7 10 11 12 11 11 11 11 11 10 9 8 7 6 5 5 4 4 4 4 4 3 3 3
2 4 6 5 5 1 4 2 4 6 6 8 6 7 5 3 2 4 6 7 7 8 10 11 11 11 11 10 10 10 9 8 7 6 5 4 4 4 4 4 4 4 3 3
3 4 6 7 8 7 6 5 6 6 6 7 8 5 2 5 5 5 6 6 7 8 10 10 10 11 10 10 10 10 9 8 7 7 6 6 5 4 4 4 3 4 4 3
2 5 4 5 3 2 6 7 8 9 9 8 9 8 1 4 5 6 6 6 7 8 9 10 10 11 11 11 10 10 9 9 7 7 6 6 5 5 5 4 4 4 3 3
3 6 5 6 6 6 6 6 8 9 9 10 11 9 2 4 6 6 7 7 8 9 9 9 10 11 11 11 11 10 9 9 8 7 7 7 6 5 5 4 4 4 4 3
4 7 8 8 6 3 6 7 9 10 10 13 15 16 13 12 11 10 8 9 9 10 10 11 11 11 11 12 11 11 10 9 8 8 8 7 7 6 5 4 4 4 4 4
6 9 9 10 8 7 10 11 11 14 16 18 18 18 17 15 13 11 10 9 10 11 12 12 12 12 12 12 12 11 10 10 9 9 9 8 7 6 5 5 5 5 4 5
5 8 9 11 9 9 13 15 16 17 17 19 20 21 18 16 14 12 12 11 12 13 13 13 13 13 13 14 13 12 12 11 10 10 9 7 7 6 6 6 5 5 5 6
6 8 10 13 9 9 15 13 13 13 14 15 18 18 15 14 13 13 12 12 13 14 13 14 14 14 13 14 13 13 13 12 11 10 9 8 8 7 7 6 6 6 7 6
10 11 9 11 12 16 9 3 6 11 14 13 15 17 16 15 13 12 12 12 13 13 12 13 13 13 13 13 13 12 12 12 12 11 10 9 8 7 7 6 6 7 6 6
10 10 9 9 13 14 11 7 6 8 10 7 9 11 12 11 9 10 8 10 11 11 11 11 12 12 13 13 13 13 13 12 12 11 10 9 9 8 7 7 7 6 5 6
6 9 9 9 12 12 7 2 1 6 7 6 8 9 10 6 6 5 4 5 8 8 8 9 10 11 12 12 13 13 13 13 12 11 10 9 8 7 7 6 6 5 5 5
6 7 10 12 13 11 6 1 4 7 4 9 10 10 9 7 9 11 9 6 5 6 7 9 10 11 11 12 13 14 13 13 11 10 9 8 7 7 6 5 4 4 4 4
9 8 9 9 11 8 3 2 3 5 8 9 11 12 12 12 12 10 8 6 4 5 7 10 10 10 10 12 13 14 13 11 10 9 8 8 7 6 4 4 3 3 3 4
7 7 6 7 6 4 3 4 6 8 10 11 13 14 13 14 12 11 9 6 5 6 7 9 10 10 10 12 13 13 11 10 10 10 9 7 7 5 4 4 4 3 2 3
7 4 7 9 9 8 8 7 6 9 12 14 14 14 14 14 14 12 9 7 5 6 7 8 10 11 11 12 12 11 11 11 11 11 9 8 7 6 5 3 2 1 1 1
10 8 11 15 14 13 8 8 11 13 15 15 15 15 14 14 14 12 10 8 7 6 7 9 11 11 12 12 12 11 11 12 12 11 9 8 7 6 5 4 2 2 3 3
14 15 16 16 14 15 16 16 16 16 16 15 16 16 14 13 14 13 11 9 8 7 8 9 11 11 12 13 12 12 12 12 12 10 9 7 6 6 6 6 6 7 6 8
Wind_Direction
172 184 192 196 209 240 230 238 250 247 179 233 251 263 252 220 219 224 219 215 215 215 205 192 190 190 193 193 195 173 209 160 309 334 325 336 346 335 345 353 359 346 345 345
172 197 194 193 200 219 232 249 255 221 179 250 273 273 265 238 227 229 227 219 215 211 202 190 192 191 199 192 192 190 183 176 326 5 338 336 334 325 345 332 340 346 348 347
182 171 172 190 200 218 233 254 277 289 250 232 281 272 247 224 227 227 229 229 221 211 208 194 193 193 194 193 189 188 181 178 180 237 312 300 288 269 287 341 355 351 345 344
182 156 181 199 210 226 240 267 269 259 259 265 276 294 277 212 225 223 220 217 217 207 207 197 192 193 193 188 184 186 179 187 178 214 285 320 317 337 352 338 347 336 347 347
171 179 192 207 215 225 264 16 242 247 262 275 249 273 283 193 239 219 211 211 210 204 201 195 193 192 189 180 180 185 182 191 196 229 252 278 302 333 332 324 333 328 5 353
125 169 218 213 149 188 152 170 175 214 249 265 282 272 283 230 249 213 194 203 203 198 195 193 187 186 183 178 180 186 192 195 201 223 237 262 298 304 314 322 338 329 350 347
159 162 157 168 158 166 208 233 233 229 234 269 95 262 270 310 280 274 263 213 197 191 190 187 184 185 184 184 187 191 197 201 206 220 235 246 263 281 291 311 328 321 337 349
181 170 173 192 221 201 210 243 270 289 293 301 225 253 278 340 269 268 259 239 199 190 191 190 189 188 187 188 190 195 201 207 208 222 233 242 247 263 287 297 304 309 326 342
197 142 135 176 235 235 198 224 291 291 291 286 271 268 282 238 243 233 223 210 199 192 191 192 190 190 189 190 192 196 202 208 209 218 227 237 248 259 274 276 283 298 307 321
248 160 147 148 165 80 301 196 206 255 286 285 282 277 281 297 280 225 216 212 201 193 192 193 191 192 192 191 191 195 204 210 208 214 220 228 247 249 264 276 285 291 295 304
254 208 160 184 216 209 178 203 237 256 272 285 293 295 343 305 308 274 239 219 206 197 196 193 191 192 190 188 189 194 199 206 207 212 215 219 227 240 250 256 272 274 281 277
248 267 210 189 132 323 250 247 236 257 261 257 279 285 293 264 281 274 259 228 212 205 199 195 193 189 189 192 193 196 200 201 203 209 212 219 224 229 240 242 251 260 269 277
190 248 241 195 183 189 221 228 239 259 271 262 262 270 170 240 263 257 248 234 212 204 201 196 192 193 193 194 196 197 199 200 197 200 209 215 217 223 233 241 247 258 264 265
251 253 266 278 299 269 232 220 222 234 256 263 260 271 276 272 270 265 248 236 221 209 204 200 196 197 197 196 197 197 197 196 195 196 207 215 219 218 227 232 244 252 255 259
251 267 266 274 280 266 264 259 237 239 259 270 277 278 279 280 278 273 260 242 225 215 210 206 203 200 196 197 198 197 196 194 195 198 207 213 214 213 222 227 236 244 248 258
254 268 271 267 263 260 263 263 259 253 259 266 273 275 277 280 276 266 254 239 227 221 215 209 205 201 199 197 197 194 194 193 195 202 207 206 214 212 220 230 235 241 247 255
248 263 271 274 274 269 264 262 260 256 252 259 269 278 287 281 271 263 257 241 232 226 217 209 205 200 200 199 195 193 194 190 195 202 204 202 207 212 220 225 233 239 243 247
255 256 263 274 273 263 278 304 270 267 269 269 271 281 288 287 284 274 260 248 239 228 218 210 205 198 197 195 192 191 188 190 196 201 202 202 207 212 217 225 235 243 251 251
239 243 251 261 265 269 275 270 242 253 276 311 296 296 302 304 287 262 245 240 239 231 219 208 203 194 192 189 186 186 187 191 196 200 203 201 205 212 218 225 235 243 252 256
211 228 243 246 258 266 280 327 219 255 259 1 338 329 326 315 281 303 326 261 237 225 210 197 189 188 186 183 182 188 190 192 196 197 203 202 204 209 218 228 240 242 245 256
196 206 230 245 255 265 301 7 189 241 330 3 350 341 333 310 300 320 318 292 247 211 195 184 180 183 183 176 179 191 193 197 193 191 194 195 196 205 214 224 230 240 248 259
258 247 238 243 249 260 68 151 243 336 350 342 341 339 330 316 310 313 306 293 251 201 186 182 180 179 177 177 183 192 195 190 180 179 184 188 191 193 195 202 221 239 250 256
253 274 281 259 274 6 15 324 334 338 330 335 332 329 325 316 312 311 305 290 254 216 191 186 183 176 175 181 189 194 185 178 174 175 180 182 181 179 186 192 199 213 231 260
267 281 271 271 272 295 304 308 317 325 323 322 322 321 318 312 310 305 299 285 257 225 202 189 184 183 182 182 189 192 176 173 175 177 178 178 178 175 170 171 184 194 229 259
282 282 277 276 284 292 284 312 322 322 319 317 318 316 313 309 304 300 292 280 261 233 210 199 197 194 188 181 182 182 174 175 180 179 176 177 172 165 157 140 94 105 67 33
258 263 267 274 289 294 296 307 316 315 315 317 315 313 312 308 302 298 290 281 264 241 218 208 204 199 193 184 181 177 176 180 182 180 176 171 163 159 155 144 120 69 82 80